Location: Bachas
(43.2439°N, 0.9375°E)
Time: 20:18:14
(UTC+00:00)

Cosmos 1238 Rocket - Pass Details

Date: 18 February 2020
Orbit: 374 x 1032 km, 83.0° (Epoch: 30 March)

Event Time Altitude Azimuth Distance (km) Brightness Sun altitude
Rises 05:15:11 0° 355° (N) 3,709 7.0 -18.1°
Reaches altitude 10° 05:17:56 10° 359° (N) 2,695 6.3 -17.6°
Maximum altitude 05:24:02 59° 78° (ENE) 992 4.4 -16.4°
Drops below altitude 10° 05:29:11 10° 158° (SSE) 2,284 6.3 -15.5°
Sets 05:31:21 0° 162° (SSE) 3,104 6.9 -15.1°
